FW3322 Weather Reports


Display with metric or nautical units.
time (UTC)temp
F
wind
direction
speed
MPH
gust
MPH
rain 1hr
in
rain 24hr
in
rain mn
in
humidity
%
barometer
mb
20260506073043 45 306 2.0 7.0 0.00 0.04 0.00 93 1015.5
20260506071539 45 26 3.0 7.0 0.00 0.04 0.00 93 1015.2
20260506061532 45 112 2.0 7.0 0.00 0.14 0.00 92 1016.6
20260506044520 45 336 3.0 7.0 0.00 0.14 0.14 92 1016.0
20260506043016 45 317 4.0 7.0 0.00 0.14 0.14 92 1016.1
20260506041514 45 328 4.0 8.0 0.00 0.14 0.14 92 1015.6
20260506040010 45 47 5.0 10.0 0.00 0.14 0.14 91 1015.2
20260506034509 45 18 6.0 11.0 0.00 0.14 0.14 90 1015.0
20260506033006 46 26 5.0 11.0 0.00 0.14 0.14 88 1014.7
20260506031502 46 19 8.0 15.0 0.00 0.14 0.14 87 1014.6
20260506024602 46 25 2.0 11.0 0.00 0.14 0.14 88 1014.3
20260506023107 46 20 5.0 10.0 0.00 0.14 0.14 87 1014.0
20260506021612 47 19 5.0 11.0 0.00 0.14 0.14 85 1014.0
20260506020052 47 13 7.0 14.0 0.00 0.14 0.14 87 1013.7
20260506014550 47 17 8.0 14.0 0.00 0.14 0.14 88 1013.3
20260506013058 47 350 4.0 11.0 0.00 0.14 0.14 89 1013.2
20260506011601 46 68 3.0 12.0 0.00 0.14 0.14 91 1013.0
20260506010048 46 30 3.0 11.0 0.00 0.14 0.14 91 1012.8
20260506004543 46 9 5.0 15.0 0.00 0.14 0.14 90 1012.7
20260506003042 46 32 4.0 16.0 0.00 0.14 0.14 89 1012.8
20260506001538 47 24 5.0 11.0 0.00 0.14 0.14 90 1012.6
20260506000035 47 27 8.0 14.0 0.00 0.14 0.14 89 1012.5
20260505234533 48 36 6.0 12.0 0.00 0.14 0.14 86 1012.5
20260505233030 48 36 7.0 20.0 0.00 0.14 0.14 84 1012.1
20260505231544 48 28 8.0 16.0 0.00 0.14 0.14 85 1012.0
20260505230027 48 337 8.0 21.0 0.00 0.14 0.14 84 1011.7
20260505224522 48 19 6.0 20.0 0.00 0.14 0.14 82 1011.7
20260505223021 48 17 10.0 18.0 0.00 0.14 0.14 81 1011.9
20260505221519 48 12 6.0 16.0 0.00 0.14 0.14 80 1011.3
20260505220022 48 11 8.0 20.0 0.00 0.14 0.14 80 1011.2
20260505214517 48 16 7.0 22.0 0.00 0.14 0.14 82 1011.4
20260505213022 49 34 10.0 22.0 0.00 0.14 0.14 78 1011.5
20260505211513 49 351 9.0 16.0 0.00 0.14 0.14 78 1011.3
20260505210013 49 18 15.0 27.0 0.00 0.14 0.14 76 1011.3
20260505204512 50 51 9.0 22.0 0.00 0.14 0.14 77 1011.3
20260505203011 50 34 11.0 23.0 0.00 0.14 0.14 77 1011.2
20260505201512 50 23 11.0 19.0 0.00 0.14 0.14 77 1011.2
20260505200003 50 38 12.0 22.0 0.00 0.14 0.14 77 1011.3
20260505194601 50 19 9.0 19.0 0.00 0.14 0.14 78 1011.3
20260505193058 50 346 9.0 25.0 0.00 0.14 0.14 76 1011.1
20260505191611 50 53 10.0 24.0 0.00 0.14 0.14 76 1011.0
20260505190057 51 355 12.0 22.0 0.00 0.14 0.14 74 1010.6
20260505184551 52 331 9.0 24.0 0.00 0.14 0.14 72 1010.5
20260505183049 52 20 13.0 25.0 0.00 0.14 0.14 71 1010.5
20260505181549 52 319 12.0 26.0 0.00 0.14 0.14 73 1010.5
20260505180050 52 9 8.0 20.0 0.00 0.14 0.14 74 1010.6
20260505174545 52 303 10.0 24.0 0.00 0.14 0.14 73 1010.5
20260505173041 53 23 14.0 30.0 0.00 0.14 0.14 72 1010.1
20260505171544 53 37 15.0 26.0 0.00 0.14 0.14 72 1009.6
20260505170050 53 16 9.0 26.0 0.00 0.14 0.14 75 1009.4
20260505164538 52 348 12.0 22.0 0.00 0.14 0.14 78 1009.4
20260505163036 52 82 7.0 19.0 0.00 0.14 0.14 81 1009.6
20260505161533 51 26 9.0 15.0 0.00 0.14 0.14 82 1010.0
20260505153030 51 348 8.0 16.0 0.01 0.14 0.14 86 1009.0
20260505151536 51 340 6.0 18.0 0.02 0.14 0.14 89 1009.1
20260505124503 0 0.0 0.0 0.00 0.12 0.12 1008.2
20260505123104 0 0.0 0.0 0.00 0.12 0.12 1007.5
20260505121615 0 0.0 0.0 0.00 0.12 0.12 1007.1
20260505120051 0 0.0 0.0 0.00 0.12 0.12 1006.5
20260505114545 0 0.0 0.0 0.00 0.12 0.12 1006.7
20260505113042 0 0.0 0.0 0.00 0.12 0.12 1006.5
20260505111541 0 0.0 0.0 0.00 0.12 0.12 1006.2
20260505101522 59 329 6.0 13.0 0.00 0.12 0.12 90 1006.2
20260505100022 60 22 11.0 16.0 0.00 0.12 0.12 93 1006.2
20260505094517 60 53 1.0 5.0 0.01 0.12 0.12 99 1005.7
20260505093026 61 38 0.0 1.0 0.02 0.12 0.12 99 1005.8
20260505091516 60 23 0.0 4.0 0.02 0.12 0.12 99 1005.5
20260505090015 60 338 4.0 12.0 0.02 0.12 0.12 99 1005.7
20260505084517 61 350 6.0 12.0 0.01 0.11 0.11 99 1006.0
20260505083013 61 337 0.0 1.0 0.00 0.10 0.10 99 1004.4
20260505081516 61 138 1.0 6.0 0.00 0.10 0.10 99 1003.8
20260505080011 61 144 1.0 8.0 0.00 0.10 0.10 99 1003.9
20260505074511 61 128 0.0 6.0 0.00 0.10 0.10 98 1003.3